Find Starlink 11646

NORAD ID: 63186 Int'l Des: 2025-048 Owner: SPXS Country: US Constellation: starlink operational
LEOCIRCULAR

現在のビュー

3D地球を読み込み中...

Starlink 11646について

説明を読み込み中...

次回通過

Passes for default location (London). Set your location on the main map for personalized predictions.

高度履歴

Loading altitude history...

軌道要素

1 63186U 25048D 26158.65008659 .00285921 00000-0 21328-2 0 9999
2 63186 42.9990 137.2882 0001737 330.7182 29.3589 15.71097211 72674
Epoch: Jun 7, 2026 • Age: 11 hours

現在のステータス

高度 353.2 km
速度 7.70 km/s
衛星直下点 9.95°N, 146.27°W
打ち上げ日 Mar 13, 2025
運用期間 1.2 years
タイプ internet

技術仕様

分類 Payload
質量 960.00 kg
乾燥質量 910.00 kg
総質量 960.00 kg
長さ 0.30 m
直径 4.10 m
スパン 29.00 m
形状 Box + pan
製造者 SPXS
バスタイプ Starlink V2MD
フェーズステータス In Orbit
所有者/国 SPXS/US

Most Searched